{"data":{"norad_id":67993,"epoch":"2026-09-20T02:07:19.801632Z","epoch_age_seconds":95083,"freshness":"FRESH","line1":"1 67993U 26039H   26263.08842363  .00013719  00000+0  50696-3 0  9996","line2":"2 67993  43.0050  31.1291 0002198 274.3365  85.7235 15.27591508 31439","mean_motion":15.27591508,"eccentricity":0.0002198,"inclination_deg":43.005,"raan_deg":31.1291,"arg_perigee_deg":274.3365,"mean_anomaly_deg":85.7235,"bstar":0.00050696,"rev_number":3143,"period_min":94.266038561927,"perigee_km":481.50655603415,"apogee_km":484.52271829385,"semimajor_km":6861.151637164,"source":"CELESTRAK","updated_at":"2026-09-20T09:00:43.736003Z"}}